Location: Darlington Observatory
(36.4817°N, 105.8156°W)
Time: 05:09:15
(UTC-06:00)

NOSS 3-3 (A) - Visible Passes

Search period start: 30 May 2017 00:00
Search period end: 09 June 2017 00:00
Orbit: 909 x 1304 km, 63.4° (Epoch: 27 May)

Date Brightness Start Highest point End Pass type
(mag) Time Alt. Az. Time Alt. Az. Time Alt. Az.
30 May 4.6 01:05:56 47° ENE 01:05:56 47° ENE 01:10:54 10° NE visible
30 May 5.5 02:53:21 21° WNW 02:55:53 27° NW 03:01:24 10° NNE visible
31 May 5.4 00:22:16 26° ENE 00:22:16 26° ENE 00:25:43 10° NE visible
31 May 4.8 02:09:40 37° WNW 02:10:50 41° NW 02:17:02 10° NNE visible
31 May 6.0 23:38:33 14° ENE 23:38:33 14° ENE 23:39:54 10° ENE visible
01 Jun 4.1 01:25:57 66° NW 01:25:57 66° NW 01:32:30 10° NNE visible
01 Jun 6.3 03:14:59 10° WNW 03:18:19 14° NNW 03:21:47 10° N visible
02 Jun 4.1 00:42:11 64° ENE 00:42:11 64° ENE 00:47:46 10° NE visible
02 Jun 5.9 02:29:35 14° WNW 02:32:57 21° NW 02:37:51 10° N visible
02 Jun 4.8 23:58:21 37° ENE 23:58:21 37° ENE 00:02:49 10° NE visible
03 Jun 5.3 01:45:44 26° WNW 01:47:47 31° NW 01:53:36 10° NNE visible
03 Jun 5.4 23:14:26 21° E 23:14:26 21° E 23:17:26 10° NE visible
04 Jun 4.6 01:01:49 45° W 01:02:47 49° NW 01:09:10 10° NNE visible
04 Jun 6.5 02:53:30 10° NW 02:55:34 11° NNW 02:57:42 10° N visible
04 Jun 5.9 22:30:26 11° E 22:30:26 11° E 22:31:06 10° ENE visible
05 Jun 3.9 00:17:49 78° W 00:17:59 79° WNW 00:24:34 10° NNE visible
05 Jun 6.3 02:06:11 10° WNW 02:10:05 17° NW 02:14:11 10° N visible
05 Jun 4.0 23:33:42 62° E 23:33:42 62° E 23:39:46 10° NE visible
06 Jun 5.9 01:21:05 15° W 01:24:48 24° NW 01:30:05 10° N visible
06 Jun 4.6 22:49:27 35° E 22:49:27 35° E 22:54:39 10° NE visible
07 Jun 5.2 00:36:48 24° W 00:39:41 37° NW 00:45:46 10° NNE visible
07 Jun 5.2 22:05:01 20° ESE 22:05:01 20° ESE 22:09:02 10° ENE visible
07 Jun 4.4 23:52:21 36° WSW 23:54:46 59° NW 00:01:17 10° NNE visible
08 Jun 6.6 01:44:21 10° WNW 01:47:17 13° NNW 01:50:21 10° N visible
08 Jun 5.7 21:20:17 10° ESE 21:20:21 10° ESE 21:21:17 10° E visible
08 Jun 3.8 23:07:36 39° SSW 23:10:03 86° ESE 23:16:36 10° NNE visible
